Theta_e
340 336 336 342 343 344 344 346 348 347 350 351 350 350 349 349 348 348 349 349 349 350 349 349 348 347 347 348 347 348 347 346 345 345 344 344 343 342 342 341 341 341 341 341 342 343 343 343 344 344 344 344 345 345 346 345 345 345 345 345 347 346 347 347 346 344 343 344 345 347 347 346 346 347 347 347 348 348 345 346 346 344 344 345 347
337 339 338 341 344 343 344 344 347 348 349 351 350 349 349 348 349 350 350 351 350 351 349 349 349 350 350 349 348 348 346 346 345 345 345 344 343 342 341 341 340 340 341 340 341 341 341 341 343 344 344 343 343 344 344 345 345 345 345 346 346 346 346 346 344 344 343 342 342 343 343 345 345 344 345 346 346 346 344 344 346 343 343 345 346
339 343 340 341 342 342 343 345 346 348 349 350 350 349 348 349 349 349 351 350 350 350 350 349 350 350 349 348 347 347 346 345 345 345 345 344 343 341 340 340 339 339 339 340 341 341 341 341 342 341 342 342 341 342 342 343 344 344 345 346 346 346 345 344 343 342 342 341 341 341 340 342 343 344 343 344 345 345 343 344 344 344 343 345 346
343 345 343 345 341 342 344 344 345 348 349 350 349 349 348 349 349 350 350 349 350 350 350 348 347 350 349 348 348 347 346 345 344 345 345 344 343 341 340 339 338 337 338 339 340 340 340 340 341 340 340 340 340 340 341 341 342 343 345 345 345 345 343 342 342 341 341 340 339 337 337 334 338 343 344 342 342 343 341 342 342 343 344 345 345
346 347 344 345 342 341 342 341 344 347 349 349 349 348 348 348 350 350 350 349 350 349 349 348 349 349 349 348 347 346 345 345 345 345 345 344 343 342 340 339 337 337 338 339 339 340 339 339 339 339 339 339 340 339 339 341 341 343 344 345 345 343 342 342 341 341 340 339 338 335 332 333 334 341 343 343 341 340 340 340 341 341 340 341 343
345 346 343 343 342 341 340 340 344 347 348 349 349 348 348 348 350 349 349 349 349 348 348 348 348 348 348 347 346 345 345 344 345 344 344 344 343 341 340 339 338 336 336 337 339 339 339 338 338 338 338 339 339 339 339 340 341 343 344 344 343 342 342 341 340 339 338 336 335 331 331 331 333 335 341 341 341 337 337 339 340 339 339 339 340
345 346 343 341 343 339 341 343 342 343 349 349 348 348 348 348 348 348 348 347 347 347 347 348 348 347 348 346 345 344 344 344 344 344 343 342 342 341 341 340 338 336 335 336 338 339 338 338 337 337 338 337 338 339 339 339 340 342 343 344 343 342 341 340 339 338 336 332 329 328 329 330 332 332 338 339 340 339 336 337 339 339 339 339 338
346 346 344 341 341 343 343 342 344 345 347 349 348 348 347 347 347 349 347 346 346 347 347 347 347 347 347 346 345 345 344 344 343 343 342 341 341 340 340 340 339 336 334 334 337 338 337 337 337 337 337 337 337 339 339 340 341 342 343 343 341 340 339 337 335 334 334 327 328 329 328 329 330 332 338 338 338 338 337 336 337 338 337 338 335
345 346 343 340 341 340 343 344 346 346 347 349 348 348 347 347 348 348 346 345 346 346 347 347 347 347 347 346 345 345 344 344 343 342 342 341 340 340 340 339 338 337 334 333 335 336 337 337 337 336 337 336 335 339 340 341 341 342 342 340 339 339 337 336 334 331 327 325 325 327 329 328 329 330 336 337 337 337 335 334 334 336 336 335 335
345 346 343 339 340 337 338 344 346 347 347 347 348 348 348 347 346 346 345 345 345 346 346 346 346 347 346 345 346 344 344 344 343 342 341 341 340 340 340 339 338 336 333 332 332 335 336 336 336 336 336 335 336 337 340 340 341 342 341 340 339 338 336 334 332 329 325 324 324 323 329 336 330 332 336 336 335 335 334 332 332 333 333 333 334
346 346 344 341 341 339 341 341 347 346 347 347 347 348 348 347 346 345 345 345 345 345 345 346 346 346 346 346 345 344 343 343 342 341 341 341 340 340 339 339 338 336 332 330 330 332 335 336 335 335 335 334 336 338 340 340 341 340 340 339 338 336 335 332 328 323 324 324 324 324 328 333 326 332 336 336 335 333 333 332 332 332 332 333 334
346 346 346 342 342 341 341 342 343 346 347 347 346 346 347 347 347 345 345 345 345 345 345 345 345 345 346 345 345 344 343 343 342 341 341 340 340 339 339 339 338 336 331 329 329 330 334 335 335 334 333 334 335 338 338 339 339 339 338 336 335 333 331 328 323 323 323 323 324 326 325 327 330 333 335 334 335 333 334 333 332 333 333 333 333
344 346 346 343 341 339 342 343 344 345 346 345 346 346 347 347 346 345 345 345 345 346 345 345 345 345 346 345 344 343 343 342 342 341 341 340 339 339 339 339 338 334 331 329 328 330 334 335 334 333 333 334 335 337 337 337 337 335 334 333 331 328 326 325 319 320 321 321 323 324 324 326 331 335 335 335 334 333 333 333 331 332 332 334 333
344 345 345 345 341 342 341 342 343 342 342 346 345 345 347 347 346 346 345 345 346 345 346 345 345 345 345 344 344 343 342 342 341 341 340 340 339 338 338 338 337 333 332 329 329 331 333 333 333 332 332 333 333 335 335 335 333 332 329 327 325 322 319 317 319 316 318 319 321 323 324 327 329 335 334 333 334 333 332 333 331 331 331 332 332
344 345 346 345 343 341 339 340 341 342 344 343 343 345 345 346 347 347 346 345 345 345 345 345 344 344 344 344 343 343 342 342 341 340 339 339 338 337 337 337 334 334 332 329 328 329 330 330 330 330 330 330 331 332 332 330 329 327 325 323 321 318 315 309 311 312 314 317 318 321 322 324 333 334 334 332 332 332 332 332 331 331 331 331 331
338 344 345 345 344 342 341 339 337 338 339 341 342 344 346 346 346 347 346 346 346 345 345 344 343 344 343 343 343 342 342 341 340 339 339 337 337 337 336 335 334 334 333 331 329 327 327 327 326 326 326 327 328 329 328 327 326 325 323 321 319 316 314 310 307 308 310 312 314 318 320 325 333 334 334 333 335 333 333 332 332 332 330 331 331
325 329 333 332 335 341 341 341 337 333 335 337 337 338 342 344 345 346 346 346 346 345 345 344 344 344 343 343 343 342 341 340 340 339 338 337 336 335 335 335 334 333 333 332 329 327 326 326 324 323 323 324 324 324 323 323 322 322 320 319 318 316 313 310 305 306 309 312 312 315 318 327 332 334 334 334 337 337 337 335 337 333 332 331 332
321 321 321 325 324 328 333 338 340 339 340 335 333 335 338 340 342 343 342 343 344 344 344 343 343 342 341 340 339 338 339 340 340 339 337 337 336 334 334 333 333 333 333 332 330 328 327 326 323 321 321 321 321 321 321 321 320 320 318 318 316 314 312 309 304 306 309 314 309 315 319 330 331 332 333 333 333 334 335 337 337 336 336 335 334
319 319 319 320 321 323 326 327 330 336 340 339 339 335 334 335 337 339 340 341 342 340 340 340 339 338 338 335 335 334 333 334 335 335 336 334 333 331 333 334 333 333 332 332 331 329 326 326 324 321 322 322 322 322 322 321 320 318 317 315 314 311 310 306 303 305 308 311 311 312 320 329 330 331 331 332 332 332 334 335 335 335 335 336 335
317 319 317 316 319 319 321 321 323 326 333 339 338 338 331 331 334 336 338 339 338 337 337 337 332 331 330 330 329 330 329 330 327 330 330 332 330 329 332 333 333 332 332 332 331 329 327 326 324 323 324 324 324 323 322 321 320 318 315 313 311 308 302 302 303 305 308 312 315 314 326 328 330 330 329 329 330 331 333 333 335 335 336 334 335
314 316 314 313 314 315 317 317 319 323 324 335 339 339 335 329 331 329 330 334 335 334 334 328 326 324 325 323 325 330 330 332 331 330 324 329 323 326 330 332 332 332 331 331 330 329 327 326 325 324 323 322 319 320 320 320 319 317 314 311 308 303 302 302 304 307 309 311 315 320 327 327 328 329 329 328 329 330 330 331 331 332 334 334 335
311 312 313 311 311 312 314 316 317 321 322 325 339 340 335 334 336 334 334 331 328 326 331 334 331 330 322 327 329 328 331 331 331 329 329 328 326 323 326 330 332 332 331 331 330 328 327 327 326 324 323 320 315 309 310 314 315 315 312 310 304 303 303 303 305 307 310 313 316 323 327 327 327 330 330 330 329 328 328 328 330 330 331 331 331
311 311 312 311 311 312 314 314 316 318 321 322 331 338 336 336 334 333 332 329 329 329 332 331 334 331 331 332 328 329 330 330 330 328 328 323 325 323 325 328 330 330 329 329 329 328 327 326 324 322 319 316 310 309 308 307 308 310 308 305 304 303 303 304 306 308 310 314 316 325 328 329 329 329 329 329 329 328 327 328 328 329 329 329 329
307 308 309 311 311 311 312 314 315 316 319 319 322 338 337 336 333 331 332 331 332 332 332 332 331 332 332 332 331 331 330 329 325 322 324 327 324 321 321 322 323 322 321 320 321 323 323 322 321 318 314 311 310 310 309 308 308 307 306 304 303 302 302 302 304 306 308 313 316 323 326 329 330 330 331 329 328 327 327 327 328 327 328 328 328
304 306 307 309 310 310 310 313 314 316 318 318 320 331 338 337 335 333 334 333 333 333 332 331 329 330 332 332 332 331 331 329 328 327 328 328 327 327 325 321 320 319 319 317 316 314 314 312 312 312 310 310 310 309 309 309 308 306 305 303 302 301 300 300 300 301 304 308 313 318 321 326 329 330 331 330 329 328 327 327 327 327 327 326 327
304 307 307 307 309 310 310 311 313 316 318 320 321 324 334 337 337 336 336 334 332 332 331 330 328 328 331 332 331 331 331 329 328 328 327 328 327 326 324 323 322 319 320 320 317 316 314 312 312 311 311 310 310 309 308 308 306 305 303 302 300 299 298 297 296 297 299 303 308 314 316 319 323 327 329 331 329 329 328 328 328 327 326 327 327
302 304 303 305 307 309 312 313 314 316 320 326 327 329 330 331 333 335 335 331 331 330 328 328 328 328 329 330 331 330 329 327 326 326 325 326 325 324 323 323 323 323 322 321 318 317 316 314 312 311 311 311 310 309 309 307 306 303 302 300 299 298 296 295 294 294 295 297 304 311 313 315 318 321 324 326 328 328 329 328 329 329 327 327 327
302 303 303 305 307 309 311 315 317 318 321 327 326 326 326 325 325 326 327 325 327 326 325 325 325 325 325 325 327 327 325 324 323 323 321 321 320 320 320 320 321 322 323 322 319 317 315 314 312 310 310 310 309 308 308 306 305 302 300 299 298 297 295 295 294 294 293 293 297 305 309 312 315 316 319 321 324 324 325 326 327 328 327 328 328
302 305 307 308 310 312 314 317 320 320 326 325 323 324 324 323 323 323 323 321 324 324 324 323 322 322 323 323 322 322 322 321 320 319 318 317 317 317 316 316 317 318 319 318 318 315 312 311 309 308 308 308 308 307 307 305 303 301 300 298 297 296 295 295 294 294 293 293 293 298 305 307 311 313 315 318 319 320 321 322 324 324 323 325 326
303 307 308 310 312 314 317 319 321 324 325 323 321 321 321 320 320 320 320 320 320 321 320 320 321 320 320 320 320 320 319 319 318 317 316 315 315 314 313 313 312 313 313 310 311 311 310 309 309 308 307 307 308 307 305 303 302 300 299 297 296 296 295 295 294 293 293 292 292 293 300 303 305 308 311 314 315 317 319 320 321 322 322 322 322
305 306 309 311 313 315 319 322 321 321 322 320 318 316 317 316 316 317 317 317 317 316 316 316 316 317 318 318 318 317 317 316 316 315 314 312 311 310 309 309 308 309 309 307 308 307 307 307 307 307 306 306 306 306 303 301 300 299 298 297 296 295 294 294 293 293 292 292 291 291 292 297 300 302 306 310 312 314 315 317 318 319 321 321 321
305 306 309 311 313 314 319 319 318 317 317 316 314 313 313 313 313 313 313 313 314 313 312 312 311 313 313 314 314 314 314 313 313 312 310 308 306 305 304 303 303 304 305 305 305 305 305 305 306 306 306 304 303 302 301 300 298 298 297 296 296 294 293 293 292 292 291 291 290 290 290 291 295 298 300 305 309 310 311 312 314 315 317 318 318
304 307 309 311 311 312 312 314 315 314 314 313 312 311 311 311 311 311 311 311 311 310 309 308 308 308 309 309 309 309 310 309 308 307 306 305 303 302 300 299 300 300 300 301 301 301 302 303 303 304 304 302 301 300 300 298 296 295 295 294 293 292 291 291 290 290 290 289 289 289 288 289 287 292 294 297 303 306 308 309 310 312 314 315 316
305 309 310 309 310 310 310 310 311 311 311 311 310 310 309 309 308 308 309 309 309 308 308 307 305 305 304 305 305 306 306 306 305 304 303 302 301 299 298 298 297 296 296 296 296 297 298 299 300 300 301 300 298 298 296 294 294 293 292 291 290 289 288 288 288 288 288 288 288 287 287 287 286 286 286 291 296 301 305 306 307 309 310 311 313
308 308 308 309 309 308 309 308 308 308 308 308 308 307 306 306 306 304 304 306 306 306 306 304 303 302 302 301 301 302 302 303 303 302 301 300 299 298 297 297 296 295 294 295 295 295 296 296 299 298 298 297 296 295 294 293 292 291 290 290 288 287 287 286 286 286 286 286 287 286 286 286 286 286 286 284 289 295 300 303 304 306 308 309 310
307 307 307 308 307 307 307 306 306 305 305 305 305 305 304 304 304 302 301 300 299 298 299 299 299 299 300 301 300 299 299 299 299 299 297 297 296 295 295 295 294 294 294 293 294 294 294 294 294 296 295 294 294 292 292 292 291 291 290 289 288 288 286 285 285 284 284 285 285 285 285 285 285 285 287 284 284 287 296 298 300 301 305 305 308
307 307 306 306 306 306 305 304 303 303 303 303 302 301 300 300 299 298 298 297 296 295 295 296 296 296 297 297 297 297 297 297 297 296 295 294 294 293 293 293 293 292 292 292 292 293 293 293 292 293 294 293 292 291 290 290 290 289 289 288 288 288 286 285 284 284 284 283 283 284 284 284 285 287 283 283 283 283 288 294 295 297 299 301 304
307 306 306 305 304 304 303 302 302 302 302 299 299 298 298 297 297 296 296 295 296 297 295 295 294 294 295 295 296 296 296 295 295 294 293 293 293 292 292 292 291 291 291 291 291 291 291 291 289 289 291 292 291 290 289 289 289 288 287 287 287 287 286 285 285 286 283 283 282 282 283 283 283 283 283 283 283 283 283 286 290 291 292 297 301
306 305 305 304 303 302 302 300 301 300 299 298 298 297 297 296 296 294 293 293 293 296 296 293 293 293 293 294 294 294 294 294 293 293 292 291 292 291 290 291 291 291 291 290 290 290 289 289 289 287 287 287 288 288 288 288 287 287 286 286 285 285 285 286 285 283 282 282 284 284 283 282 283 282 282 282 282 282 282 282 282 282 283 293 296
305 304 303 303 302 300 300 298 298 299 299 298 298 298 297 295 294 294 293 292 291 291 292 292 292 292 292 293 293 292 292 292 292 292 291 290 289 289 288 289 289 289 288 287 286 287 288 288 288 288 287 287 285 285 285 287 286 286 286 285 285 285 284 284 284 283 283 281 281 282 281 282 282 282 282 282 282 282 282 281 283 281 282 286 292
304 304 302 301 301 299 298 297 297 297 297 298 297 296 295 294 293 292 290 291 292 291 290 290 290 291 291 291 291 291 291 291 290 290 289 289 287 287 287 286 286 286 285 284 284 284 285 286 285 287 287 286 283 283 282 284 286 284 285 284 284 284 286 284 283 282 282 281 280 281 281 281 281 281 281 281 281 281 281 281 281 281 281 281 283
303 303 302 301 300 299 298 298 298 298 298 298 297 296 296 293 291 290 290 290 290 291 288 289 289 289 290 290 289 289 289 288 288 288 287 286 285 285 285 284 285 285 284 284 284 285 283 284 285 283 283 282 281 281 282 284 285 282 283 283 283 282 284 282 283 282 281 281 281 281 280 280 280 280 280 280 280 280 280 280 280 281 281 281 281
303 303 302 301 299 299 299 299 299 297 296 296 295 292 293 293 291 290 289 288 289 289 288 288 289 288 288 288 288 287 287 286 286 285 285 284 284 284 283 283 283 284 283 282 282 282 282 282 282 283 282 281 282 282 281 282 282 281 282 281 280 279 284 278 280 281 281 280 280 280 280 279 279 279 280 279 279 280 280 280 280 280 280 280 281
302 302 302 301 300 299 299 298 297 295 294 295 294 292 291 291 290 289 289 288 287 288 288 288 288 287 286 286 286 285 284 284 284 284 284 283 283 283 283 283 282 282 283 282 281 281 281 281 281 282 282 280 279 281 282 281 280 282 284 281 279 277 276 276 277 278 278 280 279 279 279 279 279 279 279 279 279 279 280 280 279 279 280 280 280
301 301 301 300 300 298 296 296 295 294 293 293 293 292 290 289 288 288 288 287 288 288 287 286 286 286 285 284 283 283 283 283 283 283 284 283 283 283 282 282 282 282 282 282 281 281 280 280 280 281 280 281 279 278 281 281 280 281 281 277 277 276 276 275 275 276 277 279 279 278 280 279 279 279 278 278 278 278 279 279 279 279 279 279 279
300 301 301 300 299 297 295 295 293 292 292 292 292 292 290 288 287 286 285 285 285 286 285 284 283 283 282 282 283 283 283 283 282 283 283 283 282 282 282 282 282 282 282 282 281 281 281 281 280 280 280 280 281 279 278 280 280 281 280 278 277 277 278 277 275 276 276 277 277 278 276 277 277 277 278 277 278 277 280 279 278 279 279 279 279
300 299 298 298 297 296 294 294 294 292 292 291 291 291 289 289 289 289 288 286 284 284 283 283 282 282 282 282 282 282 282 283 282 282 282 282 282 282 282 282 282 282 282 282 281 281 281 280 281 280 280 282 280 279 278 278 279 280 279 279 279 277 276 275 276 275 273 274 276 276 277 276 276 276 277 276 277 277 277 279 278 278 278 278 278
298 297 297 296 295 294 293 293 293 293 292 292 291 291 290 290 289 287 287 286 285 283 283 282 282 283 282 281 281 281 282 282 282 281 282 282 282 282 282 281 281 281 282 281 281 280 281 281 281 280 280 279 279 279 276 276 277 277 279 278 278 278 276 276 275 276 276 273 274 275 275 275 276 276 277 276 277 276 276 277 278 277 277 278 278
296 296 296 295 294 292 292 292 292 292 292 292 291 291 290 289 288 286 285 284 284 283 283 284 282 282 281 281 281 281 281 281 281 281 281 282 282 281 281 281 281 280 281 280 280 280 279 279 279 280 279 279 279 278 278 276 278 277 277 276 276 276 276 275 275 275 276 272 271 273 274 275 275 275 276 276 276 276 277 277 278 278 279 278 277
295 296 296 294 292 291 290 290 290 290 290 290 289 289 288 288 287 285 284 283 283 282 282 281 281 281 281 280 280 281 280 281 281 281 281 281 281 281 281 280 280 280 280 279 279 279 279 279 279 279 279 278 278 278 277 276 277 276 276 276 275 275 275 274 274 273 273 273 274 273 273 273 273 275 276 276 276 276 276 276 276 276 276 276 277
295 295 295 293 292 291 289 289 290 290 289 289 288 287 287 287 286 285 284 283 282 282 281 280 281 280 280 280 280 280 280 280 280 281 280 280 280 281 280 280 280 280 279 279 278 278 278 278 278 278 278 278 278 278 278 277 277 277 276 275 275 275 275 274 273 274 273 272 272 271 272 273 273 273 274 276 277 275 275 275 275 275 275 276 276
Wind_Speed
3 6 2 3 6 4 4 4 7 5 6 9 9 10 9 9 9 9 9 11 12 13 13 12 14 14 15 16 15 16 16 15 16 16 16 16 16 16 16 16 16 16 15 15 15 15 14 14 14 15 15 16 16 17 17 17 17 18 18 18 19 19 19 18 18 17 18 19 19 21 21 19 20 20 20 20 21 21 19 19 17 11 9 11 16
6 7 6 6 6 4 5 6 5 5 8 9 10 9 9 9 9 9 9 10 10 11 12 13 13 13 14 14 15 16 15 15 15 15 16 15 15 15 15 15 15 16 15 15 15 14 14 14 14 14 15 16 16 17 17 16 16 16 17 18 19 19 18 17 17 17 17 17 17 18 19 21 20 19 20 21 21 21 19 19 20 11 7 16 17
5 8 5 8 7 5 4 4 3 5 8 10 10 9 10 9 8 8 9 9 10 11 12 13 13 13 14 14 15 15 15 15 15 15 15 15 15 14 14 15 15 15 15 15 15 14 14 14 14 14 15 15 16 16 17 16 15 16 17 18 18 18 17 17 17 17 16 16 16 17 16 17 19 20 19 20 21 21 20 20 20 18 12 19 17
7 6 8 12 12 9 8 5 3 4 8 9 9 9 9 9 9 8 9 9 10 12 12 12 12 14 14 14 15 15 15 14 14 14 14 14 14 14 14 15 15 15 15 15 15 15 15 15 15 14 14 15 15 16 16 16 15 15 17 17 18 17 17 17 17 16 16 15 14 10 7 7 10 20 19 19 20 20 20 20 21 21 21 20 21
6 6 6 8 9 10 9 5 3 5 8 9 8 8 8 9 9 9 9 10 10 11 12 12 13 13 14 14 15 15 15 14 13 14 14 14 14 14 14 15 15 15 15 15 15 15 16 16 15 15 14 15 15 15 16 15 15 16 17 18 18 17 17 17 16 16 15 14 13 9 7 7 6 17 19 20 19 19 19 21 21 20 20 21 20
6 6 6 5 10 9 11 10 5 8 10 9 9 8 7 9 9 9 10 10 11 11 11 12 13 13 13 14 15 15 14 13 13 14 14 14 14 14 14 14 15 15 15 15 15 16 16 16 17 16 16 15 15 16 15 15 15 17 17 18 18 17 16 16 15 14 13 13 11 7 7 7 6 9 20 19 19 19 19 21 21 20 20 21 20
8 5 5 5 6 11 15 12 13 8 13 11 10 9 8 8 8 9 9 10 10 11 11 12 12 13 13 14 15 14 13 13 13 14 14 14 14 14 14 15 15 15 15 15 16 16 16 16 16 16 16 16 16 17 16 15 16 17 18 18 17 16 16 15 14 13 12 8 6 6 6 7 6 5 19 18 19 20 20 20 19 19 20 20 21
3 4 4 5 2 8 15 13 13 12 13 12 11 10 9 8 6 7 9 8 9 10 10 11 12 12 13 14 14 14 13 12 13 14 13 13 13 14 14 15 15 15 15 16 16 16 16 17 17 16 16 16 16 17 16 16 16 17 18 17 17 16 15 14 14 13 12 7 5 5 6 6 6 5 17 18 19 21 20 19 18 20 20 21 18
4 4 4 4 3 4 12 10 11 11 12 11 11 11 10 8 7 7 8 8 9 9 10 11 11 12 14 13 13 14 13 12 12 13 13 13 13 14 15 16 15 15 16 16 16 16 16 17 17 17 16 16 16 16 16 17 18 18 18 17 16 15 15 14 13 12 7 5 6 6 6 6 5 5 16 19 19 21 20 16 13 19 20 19 19
3 4 3 3 3 11 3 3 10 11 10 11 10 10 11 10 9 9 8 8 9 9 9 10 11 13 13 13 13 13 12 12 12 12 12 13 13 14 15 15 16 15 16 16 16 16 17 17 17 17 17 17 16 16 17 17 18 18 17 17 16 15 14 13 13 9 6 6 7 7 7 8 4 6 15 18 19 20 19 17 15 15 15 19 20
3 4 4 3 5 15 9 1 4 8 9 10 9 10 10 10 10 9 8 8 8 8 9 10 10 12 12 12 12 12 12 12 12 12 12 13 14 15 15 15 16 16 16 16 17 17 17 17 17 17 17 17 16 17 18 18 18 18 17 16 16 15 15 14 11 7 7 7 7 7 7 9 4 6 17 18 18 19 18 18 17 18 20 21 20
2 4 3 3 6 9 9 8 6 9 7 8 8 8 9 8 9 10 9 8 8 8 8 9 10 11 12 12 12 12 11 11 11 11 12 13 14 15 15 16 16 16 16 16 17 17 17 17 17 17 17 17 17 18 18 19 19 18 17 17 17 16 16 15 9 7 8 8 8 8 8 6 7 12 19 17 17 18 18 19 18 19 20 20 20
2 4 3 3 3 7 12 8 3 4 7 7 7 9 10 9 9 9 9 8 8 8 8 9 10 10 11 11 12 12 11 11 11 12 12 13 14 15 16 16 17 16 16 17 17 17 17 18 18 18 18 18 18 19 19 19 19 18 18 18 17 16 15 16 8 9 8 9 9 9 8 5 7 18 19 17 17 18 18 18 17 19 20 19 18
3 4 3 2 2 4 7 11 5 7 1 9 8 8 9 9 9 8 8 7 7 8 9 9 10 10 11 11 11 11 10 11 11 12 13 13 14 16 16 16 16 16 17 17 18 18 18 18 18 19 19 18 19 20 20 20 19 19 18 18 17 16 15 11 10 8 8 9 9 9 9 7 7 18 19 17 17 18 18 18 17 19 18 19 18
4 4 4 2 2 2 5 9 9 6 3 6 2 5 8 9 8 7 7 7 7 8 8 8 9 9 9 11 11 10 10 11 12 12 13 13 14 16 16 16 16 16 17 18 18 18 18 18 18 18 19 19 19 19 20 20 19 19 19 18 18 17 15 8 8 8 8 8 8 10 9 7 15 17 19 18 18 18 19 17 16 19 18 18 18
6 2 4 3 3 3 3 6 9 4 4 6 1 2 6 6 7 8 8 6 7 8 8 7 8 8 9 9 10 10 10 11 12 12 12 13 14 15 16 16 16 16 17 18 18 18 19 19 18 18 19 19 20 20 20 20 19 19 19 18 18 18 16 9 8 8 7 8 8 8 8 6 17 17 16 19 20 18 16 14 16 17 16 17 17
8 8 8 8 7 4 1 4 6 6 6 6 1 4 3 6 6 7 7 7 7 8 7 7 7 7 9 8 8 8 8 11 12 11 11 12 14 14 14 15 16 16 16 17 18 18 18 18 18 19 19 19 20 19 19 19 19 18 18 18 17 17 15 11 8 7 7 7 7 7 7 6 16 18 17 18 20 19 19 16 21 17 14 15 16
8 8 6 5 8 6 6 5 2 4 5 7 6 4 3 5 5 7 7 7 7 7 6 7 7 7 7 7 8 8 9 10 10 11 11 10 12 13 13 14 15 15 16 16 17 17 17 17 18 18 18 19 19 19 19 18 18 18 17 17 16 16 14 11 8 7 8 7 7 7 6 13 19 19 20 19 18 19 19 20 19 19 18 16 14
8 8 6 7 8 5 5 4 7 5 2 4 4 4 6 6 6 6 8 8 7 7 6 7 7 7 7 8 8 9 9 10 10 10 9 10 10 10 11 12 14 15 14 15 15 16 16 16 17 17 18 19 19 19 19 18 17 17 16 15 15 13 13 9 8 8 8 7 6 7 8 17 18 19 19 19 18 18 18 20 22 21 20 18 15
6 4 5 5 5 7 6 6 6 6 5 3 4 4 6 8 5 6 6 7 7 7 6 6 7 7 8 9 9 8 8 8 10 8 10 9 9 8 10 11 13 13 13 14 14 15 15 16 16 17 18 18 18 17 17 18 17 16 15 15 13 11 9 7 8 9 8 7 6 6 12 19 20 19 19 19 19 19 19 20 20 21 22 20 20
3 4 5 4 3 5 6 6 6 7 6 4 4 5 6 7 6 7 8 7 5 6 7 7 6 6 6 7 8 6 5 6 6 5 8 6 7 11 10 10 12 12 12 13 14 14 15 16 16 16 16 15 14 15 15 15 15 15 14 13 11 9 8 8 8 8 8 7 7 8 16 17 19 20 20 20 20 19 20 20 21 22 23 22 22
5 5 6 8 7 7 7 6 6 7 7 6 2 3 4 5 4 4 4 6 5 6 5 4 5 3 5 5 4 4 4 4 5 6 5 6 7 10 10 9 10 10 11 13 14 14 15 16 16 16 15 13 12 8 8 11 14 14 13 11 10 8 8 8 9 8 9 8 8 10 16 18 18 20 21 21 20 20 20 19 20 20 22 22 22
4 7 7 7 6 5 5 6 4 6 6 4 4 1 4 4 3 3 4 4 5 4 5 4 4 4 4 4 4 3 3 4 5 5 5 6 6 10 9 9 10 11 11 11 12 14 14 15 15 15 14 12 8 7 7 7 8 12 12 10 8 8 9 10 9 9 9 9 8 16 18 21 20 19 20 20 20 20 20 20 20 20 22 22 21
4 3 4 4 3 5 5 3 5 5 4 4 4 0 3 3 4 3 4 3 3 4 3 4 2 5 4 3 3 3 4 3 5 8 7 5 5 9 10 10 11 10 10 8 10 11 14 13 14 12 9 6 6 7 7 7 7 7 8 8 8 9 10 9 8 9 9 10 11 21 21 23 23 21 20 20 19 21 21 21 21 21 21 22 22
3 5 4 6 6 4 5 4 4 4 3 3 4 3 3 3 4 4 3 3 4 3 3 4 2 2 5 4 4 4 4 4 4 4 4 4 4 4 5 4 4 5 7 7 6 6 6 6 7 7 7 7 7 7 7 8 8 8 8 8 9 9 9 9 9 9 9 10 14 24 24 24 24 25 24 22 22 21 20 20 21 21 22 22 22
3 4 5 6 6 5 3 4 5 4 2 1 3 3 2 3 4 5 4 4 4 4 3 3 4 3 2 4 4 4 4 4 4 4 3 3 4 5 4 4 5 4 4 6 5 6 5 6 6 7 6 7 7 7 7 8 8 9 8 9 8 8 9 9 9 10 10 10 14 25 26 26 27 27 27 24 23 23 23 23 22 21 20 21 22
4 3 3 4 4 5 5 3 4 4 4 3 1 1 4 3 1 3 5 4 5 5 4 4 4 3 2 3 5 4 4 4 4 4 4 4 5 5 5 4 4 4 4 6 6 5 6 6 6 6 6 8 8 8 8 9 8 10 9 9 8 9 9 9 10 10 10 11 14 25 24 24 25 25 25 26 27 27 25 25 25 24 23 23 21
3 4 3 3 3 4 4 5 4 3 2 2 3 4 4 5 4 6 5 4 6 6 4 4 4 4 4 3 4 4 5 6 5 6 6 5 5 6 5 5 5 5 5 6 6 5 7 6 6 6 8 8 9 8 8 8 9 9 10 9 9 8 9 9 9 10 10 10 12 20 24 24 25 25 25 25 25 25 27 28 29 27 27 26 25
3 3 4 4 3 4 3 4 5 3 1 3 5 4 4 5 6 4 5 5 5 5 6 4 5 5 5 5 4 5 6 6 5 5 4 6 5 6 6 6 5 5 6 6 6 6 6 6 6 6 6 7 7 8 9 9 9 9 10 10 8 8 9 9 9 9 9 9 10 16 24 25 24 25 25 25 25 25 25 25 25 25 25 25 26
3 4 4 3 4 4 4 4 4 3 3 4 5 4 4 6 6 4 7 6 5 4 6 6 5 6 5 6 6 6 6 6 6 5 6 6 7 6 7 6 6 5 6 7 5 6 6 6 6 6 8 8 8 7 9 10 9 9 9 10 9 8 8 9 9 9 9 9 9 12 22 23 24 25 25 25 25 25 25 25 25 25 24 25 26
3 4 4 4 5 5 4 3 2 2 3 5 7 5 5 6 6 5 6 6 5 6 6 7 6 5 6 6 6 7 7 6 6 7 6 6 6 7 7 5 7 6 5 7 6 7 6 6 6 6 7 8 8 7 9 10 9 9 9 10 8 8 8 8 9 9 10 9 9 9 12 21 23 24 24 25 25 25 25 25 25 25 25 25 25
3 5 3 4 4 5 3 4 4 4 6 5 7 6 7 6 6 6 6 5 5 7 7 6 6 6 6 6 6 6 6 7 7 6 6 7 7 7 6 6 5 5 6 7 7 6 6 7 7 6 6 8 8 8 8 9 9 9 9 10 8 8 8 8 9 10 10 9 9 9 9 10 18 22 23 24 24 25 25 25 25 25 25 25 25
2 4 4 3 4 4 4 6 6 5 6 6 7 5 8 5 6 7 6 6 7 7 7 6 6 5 7 7 7 7 5 7 7 7 7 8 8 8 7 7 6 6 6 8 8 6 6 8 8 6 7 8 10 10 9 9 9 8 9 9 8 8 7 8 9 9 10 9 9 8 8 9 9 14 19 21 22 24 24 24 24 25 25 25 25
3 2 1 3 3 3 3 4 5 6 7 5 8 5 8 6 5 7 6 8 7 8 7 6 7 6 7 8 7 7 7 7 7 8 7 8 8 7 7 6 5 5 5 5 7 5 6 8 7 8 7 8 9 8 9 10 8 8 9 7 8 6 7 9 9 8 8 9 7 8 8 8 8 8 9 16 20 21 23 24 24 24 24 25 25
1 1 2 2 4 4 3 4 5 6 7 6 8 6 7 8 7 6 5 9 7 7 6 6 7 5 7 7 8 7 7 7 6 8 8 7 8 7 7 6 6 6 6 5 6 6 7 8 6 9 8 8 9 8 9 8 9 10 8 7 7 6 8 9 9 9 9 7 8 8 8 8 8 8 8 8 11 19 22 23 24 24 24 24 24
1 2 3 3 4 5 4 5 7 6 8 7 7 6 7 10 6 5 7 9 6 6 7 6 6 6 8 8 8 7 8 7 7 7 9 7 7 8 6 5 5 6 7 6 6 7 6 8 6 6 11 8 10 9 7 9 9 9 6 6 5 7 8 8 9 9 7 7 8 8 8 8 7 8 8 8 8 11 21 21 23 24 24 24 24
3 3 3 4 5 5 5 6 8 5 9 7 7 8 6 9 6 7 7 8 7 7 7 6 6 6 7 8 7 7 8 8 7 6 8 8 7 8 6 6 5 6 7 7 8 6 6 8 8 7 7 9 10 10 8 8 8 7 6 6 6 8 9 8 8 7 7 9 8 7 7 8 8 9 8 9 8 8 14 21 21 22 23 23 24
4 3 3 4 5 6 5 7 7 5 6 6 8 8 6 7 7 7 8 7 9 7 6 6 7 6 6 7 8 8 7 7 7 7 8 8 7 8 7 6 6 7 7 9 7 7 6 7 10 7 6 8 8 9 9 7 7 7 7 7 7 8 7 7 6 6 8 8 7 7 6 7 8 9 9 8 8 8 8 13 18 19 21 22 23
4 5 5 5 5 6 5 7 7 6 6 6 8 9 8 8 8 8 9 9 8 7 6 6 5 5 6 7 8 7 7 7 7 7 8 9 6 6 7 5 6 7 8 9 9 8 8 7 11 10 9 8 8 7 7 7 7 7 7 7 6 7 6 5 5 7 7 7 7 6 6 8 7 8 8 9 8 8 9 8 8 8 10 21 21
5 5 6 6 7 6 6 6 6 7 5 6 6 7 7 7 7 6 9 8 7 7 6 4 3 5 6 7 7 6 6 6 6 7 8 8 8 7 8 6 7 8 10 10 8 7 8 11 9 11 11 9 7 5 4 7 8 8 6 6 5 5 5 6 7 6 6 7 7 6 7 6 7 8 9 8 8 9 9 9 8 8 8 13 20
5 6 7 6 6 6 7 8 7 7 5 5 5 5 7 8 6 5 9 7 7 6 5 4 6 5 6 6 6 5 5 6 7 8 8 9 8 7 8 7 6 9 9 9 6 7 6 7 7 6 8 9 6 5 3 1 7 6 5 6 6 4 4 6 8 6 6 6 6 7 6 7 7 8 7 7 8 8 7 8 8 7 8 7 10
6 6 7 7 7 7 5 6 6 6 5 4 5 3 3 4 7 6 7 6 6 4 5 4 6 6 6 6 5 6 6 7 6 7 7 8 8 8 8 7 7 9 9 7 6 6 6 6 7 8 5 6 4 4 4 1 3 5 4 1 2 2 3 6 6 5 5 5 5 7 7 6 6 5 5 5 7 7 7 7 7 7 7 7 8
8 7 6 8 8 7 6 6 5 5 4 4 5 5 5 6 6 6 4 7 5 4 6 6 6 7 7 6 5 6 6 6 5 5 7 6 8 9 7 6 6 7 9 8 7 8 6 6 5 10 8 4 5 5 6 3 3 2 2 4 1 1 0 3 3 4 4 4 4 5 5 6 5 4 5 5 7 7 6 6 6 6 6 7 7
7 7 7 8 7 7 8 6 6 6 5 5 7 7 7 9 10 9 8 6 7 5 8 7 7 7 8 6 6 5 5 6 5 5 6 6 7 8 7 7 6 4 8 9 8 7 6 5 6 5 8 6 3 7 6 6 3 3 1 0 1 1 1 2 3 3 2 0 4 4 5 7 5 5 6 8 8 7 7 6 7 6 7 7 7
7 8 8 7 6 8 7 7 7 7 6 8 8 9 10 10 10 10 9 11 8 7 7 7 5 6 6 6 5 4 5 6 5 5 6 7 6 7 7 7 7 6 7 9 8 6 5 4 4 5 4 9 5 3 7 6 8 3 5 3 1 3 0 1 3 1 4 2 4 4 4 7 7 5 6 5 5 6 6 7 7 6 7 7 7
8 7 7 8 8 7 6 7 7 7 8 8 10 9 8 13 12 10 9 8 8 5 8 9 6 5 6 3 5 5 4 6 5 5 5 6 8 7 7 8 8 7 7 8 7 7 6 7 4 5 7 4 10 6 4 4 7 10 8 5 1 3 2 1 2 0 5 1 4 3 2 4 5 4 4 4 7 7 5 6 6 7 7 7 7
7 7 6 7 8 8 7 7 6 7 7 9 9 7 8 6 5 8 12 12 12 3 4 4 6 5 5 6 5 4 4 6 5 4 5 6 7 7 8 8 8 7 6 8 8 7 6 6 4 7 5 4 5 8 7 3 5 9 7 7 9 7 3 2 1 1 3 4 2 3 3 2 4 2 5 4 6 6 5 4 6 5 6 6 6
8 8 7 7 9 9 9 8 6 7 6 8 8 6 7 6 7 6 5 6 10 11 7 6 4 5 7 6 5 5 4 4 6 5 5 6 7 8 8 8 9 7 7 8 8 6 7 6 7 6 6 6 6 9 5 3 7 2 5 8 8 8 7 7 3 2 2 1 5 4 3 2 3 3 4 4 7 6 5 5 6 6 6 7 7
8 9 8 8 7 7 8 7 7 7 7 8 7 6 4 5 7 9 8 6 8 8 7 5 6 4 8 5 5 5 5 5 4 5 5 6 7 8 7 8 8 7 7 8 7 6 7 8 7 8 8 7 6 5 7 6 7 6 6 5 6 6 5 4 2 2 2 2 3 4 8 6 1 5 5 2 5 4 4 6 6 6 6 7 7
7 7 9 8 8 8 8 9 8 7 7 7 5 4 5 7 8 8 13 10 8 7 6 8 6 5 8 6 5 5 5 6 5 4 6 6 7 6 7 8 8 7 7 8 8 8 7 8 7 8 7 9 6 7 8 6 5 3 3 6 4 2 3 3 4 2 2 3 1 4 3 4 8 7 5 6 8 4 4 4 5 6 6 6 7
6 8 9 9 9 9 9 9 9 8 8 7 5 6 6 7 9 11 15 15 11 11 10 8 7 6 8 6 6 5 4 5 5 5 6 5 6 5 7 7 7 7 8 7 7 8 7 8 7 8 8 9 7 8 8 6 6 6 6 5 5 5 4 3 3 2 3 2 3 3 3 3 5 8 4 6 6 5 4 4 5 5 6 6 6
Wind_Direction
180 140 161 240 192 163 127 143 141 131 143 122 99 97 101 107 110 110 107 100 94 96 98 99 97 89 85 85 81 77 74 72 69 67 62 57 53 51 51 52 53 54 55 56 56 57 56 55 54 54 55 58 61 60 57 57 59 65 69 69 65 63 63 60 56 54 50 48 47 44 45 45 42 42 42 44 44 41 39 40 40 33 35 39 44
168 145 165 188 168 164 157 162 151 162 144 118 110 115 120 119 113 104 104 100 100 100 104 102 96 93 92 92 86 82 78 75 70 67 65 60 56 53 52 52 53 54 55 57 59 60 60 58 56 55 56 58 61 63 61 60 63 70 73 71 69 67 64 61 61 58 55 52 49 46 43 45 45 44 43 42 43 41 37 37 38 37 31 39 42
150 146 152 149 169 147 163 151 172 162 133 119 119 123 125 124 118 106 107 112 111 111 108 105 101 99 97 92 89 86 83 77 72 66 64 61 57 54 52 52 54 55 55 57 59 60 61 62 62 59 57 58 63 68 66 65 68 72 75 75 73 68 63 63 61 58 55 52 50 49 44 41 44 45 44 42 40 39 37 35 34 34 32 34 39
137 152 151 150 153 150 149 167 211 162 129 122 125 129 128 128 115 107 111 111 115 114 111 105 102 101 98 93 89 86 83 79 73 68 64 61 57 53 51 50 52 55 56 56 57 58 60 61 61 61 60 61 68 72 69 69 73 77 75 76 74 69 66 62 59 55 51 47 45 41 36 28 33 43 43 43 41 39 38 38 36 33 29 26 30
146 135 146 135 145 143 162 169 201 162 137 132 131 131 128 120 106 110 110 111 112 112 107 103 104 100 97 93 87 84 81 78 73 68 64 60 56 52 50 50 51 53 55 56 56 57 57 58 59 59 60 65 72 75 72 74 80 81 81 78 74 71 67 62 58 53 48 44 40 39 33 28 28 42 43 43 43 38 37 37 37 34 31 28 24
152 136 146 138 155 137 138 179 171 165 151 142 136 126 119 114 112 117 111 109 109 108 106 104 102 102 98 92 88 85 82 78 73 68 64 60 56 53 51 50 50 52 54 55 55 56 56 56 57 58 62 69 73 74 74 79 83 84 83 78 74 70 66 60 54 49 43 40 35 34 29 27 31 38 41 42 44 41 36 35 34 34 32 31 26
156 138 140 138 139 151 155 170 154 193 149 144 136 128 119 114 119 122 117 109 107 106 107 106 104 104 99 95 92 89 84 79 74 70 65 61 56 53 51 51 51 52 54 55 55 56 56 57 59 60 64 70 72 70 72 80 84 84 81 76 71 68 63 57 52 47 44 41 36 31 29 29 27 34 42 43 42 42 39 36 36 36 35 32 29
155 144 133 119 189 154 135 182 160 167 144 139 136 132 126 117 97 102 103 106 104 102 106 109 108 106 99 97 96 92 88 82 77 74 69 64 59 55 51 50 50 53 54 56 58 57 58 58 61 64 67 69 70 69 75 82 84 84 81 75 70 65 59 54 47 43 42 38 35 35 34 29 28 36 46 43 43 42 40 37 37 37 36 35 33
154 143 126 130 144 129 136 184 151 140 145 138 139 136 132 122 102 93 103 106 108 106 108 110 110 108 104 101 98 95 91 84 77 73 70 66 61 56 52 51 49 50 53 56 58 59 59 61 63 67 70 69 68 68 76 84 87 85 78 75 71 66 62 57 50 44 35 31 25 23 33 36 28 32 46 44 44 43 41 39 35 37 36 36 37
170 137 116 133 123 92 130 252 148 141 137 139 143 140 133 125 119 113 113 113 107 107 110 110 114 112 107 104 99 98 94 85 77 72 69 66 62 58 54 52 51 50 51 54 57 60 60 62 65 69 70 69 70 72 78 84 84 78 76 74 71 66 61 56 51 42 37 27 22 16 15 26 39 39 46 44 45 45 44 41 43 39 39 37 36
177 137 121 132 140 141 185 155 139 145 145 145 147 143 134 131 125 121 116 116 115 113 115 116 115 113 109 106 103 100 95 87 81 74 69 66 63 60 56 54 52 50 51 53 57 59 62 64 67 69 69 69 71 73 77 80 77 71 69 67 63 59 54 50 45 34 32 28 25 17 11 22 3 47 46 43 45 46 46 42 40 41 39 38 37
117 135 133 124 145 144 152 143 211 154 152 141 141 142 135 134 131 127 127 121 124 118 118 119 122 119 113 110 108 103 97 90 83 77 70 66 63 60 57 56 54 52 53 54 56 60 63 65 68 68 68 69 70 74 75 74 69 65 62 58 55 52 48 45 41 33 28 21 21 20 21 24 42 51 47 45 47 46 46 44 41 40 39 36 37
128 129 121 127 139 164 157 171 120 148 149 135 142 155 140 141 138 131 131 131 132 124 124 128 127 125 118 114 111 107 102 95 86 78 70 65 63 60 58 57 55 55 54 55 57 61 65 67 68 70 70 68 70 71 72 66 62 59 56 53 50 47 46 44 36 32 25 20 18 12 17 1 44 50 47 45 44 45 45 43 39 41 38 37 37
141 133 128 119 130 156 170 151 166 119 249 149 159 160 148 145 138 135 130 130 127 123 127 132 131 128 124 120 116 112 106 97 87 77 69 65 62 60 59 60 60 57 56 56 59 63 65 65 67 69 68 65 68 69 65 63 62 59 56 52 48 46 44 41 38 33 27 22 18 13 5 357 48 50 48 43 44 42 41 39 34 39 37 39 39
149 141 139 121 134 146 137 141 142 128 171 120 143 147 156 147 137 133 131 129 128 124 127 130 135 134 127 122 120 115 107 98 86 78 71 67 64 62 62 64 63 60 58 58 60 62 63 63 64 64 64 63 64 64 65 64 62 59 55 52 49 46 45 43 38 33 29 22 17 15 3 339 41 48 51 45 43 42 40 38 37 39 37 40 41
32 113 143 144 152 134 132 132 136 144 150 153 196 160 140 144 137 136 132 126 131 129 132 138 138 138 131 125 123 117 109 99 88 82 73 69 66 65 67 69 67 63 61 60 60 61 62 61 62 63 64 65 66 65 64 64 62 58 55 53 51 49 46 49 42 34 30 24 19 13 359 346 35 45 45 40 41 40 39 37 34 48 39 39 40
37 31 50 29 27 17 111 140 162 158 153 133 45 18 108 138 142 134 135 133 129 135 139 139 144 144 138 127 121 111 103 101 94 88 79 73 71 70 72 73 72 67 64 62 63 64 64 64 64 65 66 68 69 68 66 65 63 61 59 55 53 50 47 47 46 34 31 28 23 8 357 15 35 37 36 34 31 38 35 31 33 39 41 36 41
45 36 35 23 39 12 22 27 72 163 147 143 181 156 136 117 148 140 140 136 133 134 140 137 144 131 131 118 111 106 102 100 99 93 83 77 75 76 76 76 75 72 68 65 65 65 67 68 71 72 73 73 73 72 70 68 66 63 60 57 54 51 48 47 46 32 29 28 20 10 2 39 37 38 38 34 31 32 34 35 35 34 29 27 24
53 39 30 35 32 16 15 27 18 357 145 143 152 137 129 117 134 136 143 139 132 132 140 145 141 135 125 115 110 109 101 102 103 99 91 87 80 74 77 77 77 75 72 69 68 68 69 70 73 76 77 76 76 75 73 71 69 66 63 59 55 52 48 46 41 34 28 24 13 16 20 43 44 40 40 38 38 36 35 32 32 38 33 33 21
65 49 33 47 30 30 10 24 15 7 340 182 155 139 138 136 131 128 133 135 138 138 137 140 134 129 120 120 117 111 108 109 109 105 101 94 91 87 84 80 79 77 74 73 71 71 72 72 75 76 76 76 76 75 74 73 71 67 65 62 58 53 49 46 42 37 29 21 9 19 36 44 45 44 42 41 40 39 36 36 36 34 43 39 38
44 44 44 44 40 32 15 25 9 359 351 306 145 145 152 145 132 112 109 112 123 119 109 104 107 107 112 117 118 113 119 120 112 108 99 94 92 93 87 84 84 79 76 76 76 76 77 75 76 74 69 66 62 62 62 69 69 69 68 64 60 56 51 49 44 39 30 18 16 35 42 46 47 46 46 43 42 42 40 37 35 34 35 39 44
356 356 22 15 11 13 7 17 7 351 345 305 46 134 143 154 134 120 119 110 110 117 108 112 113 95 111 116 116 124 125 120 117 115 112 115 108 102 97 91 83 75 71 76 80 79 78 73 69 66 64 60 56 56 54 55 58 62 62 60 59 57 51 51 48 39 32 19 14 39 49 49 51 49 48 46 45 44 44 41 39 37 34 34 35
1 354 353 7 6 353 358 3 349 339 315 318 353 161 151 140 130 122 102 97 97 102 102 115 136 110 123 126 120 126 119 123 128 124 123 111 104 105 99 93 88 77 67 61 74 79 74 71 66 60 56 51 49 50 52 51 47 47 51 53 57 54 53 50 48 40 31 25 24 16 39 44 43 48 48 45 43 44 45 44 43 43 39 36 35
342 343 319 322 5 5 350 332 330 320 319 354 329 306 144 147 133 128 103 108 104 114 114 114 142 126 143 129 126 120 109 100 101 115 118 120 97 92 93 89 85 78 73 62 51 56 66 65 65 62 53 51 53 49 52 49 49 47 51 52 54 51 52 49 47 42 35 27 24 23 39 44 44 43 50 46 44 43 42 42 42 42 41 40 37
310 313 336 338 342 351 341 332 327 301 318 333 337 333 175 188 138 132 126 123 122 116 117 111 83 117 152 149 141 113 118 113 126 126 129 123 111 99 79 43 59 72 81 71 65 50 57 61 61 63 63 62 61 56 58 58 54 55 54 50 53 52 53 49 49 46 39 32 32 34 35 42 42 41 46 46 42 40 42 42 41 39 39 38 36
324 357 335 326 327 328 327 314 304 302 310 317 325 283 273 191 168 148 136 132 120 113 117 113 132 147 135 150 141 137 127 115 125 126 114 106 93 87 78 82 76 76 89 90 85 84 73 65 64 67 64 64 64 64 66 70 71 64 59 54 54 56 57 54 52 52 44 39 33 38 39 40 42 39 36 39 41 40 39 38 40 39 39 40 37
344 319 311 302 303 310 324 320 306 318 330 13 13 39 46 35 341 123 138 129 116 107 85 90 91 80 98 161 136 137 118 103 87 92 90 103 103 87 80 77 79 77 71 94 88 82 82 74 67 71 74 71 68 66 71 70 72 76 68 63 59 59 59 58 54 52 48 43 33 36 41 44 44 44 42 38 36 33 33 37 40 40 38 39 39
358 310 312 304 313 312 311 321 309 314 303 63 60 48 50 62 32 79 70 88 105 100 87 84 76 78 75 44 105 107 106 107 123 107 90 67 68 75 73 73 66 63 74 88 95 88 84 84 83 74 77 76 78 75 77 74 72 75 75 67 63 59 61 59 57 52 50 46 41 34 40 41 42 42 43 43 42 38 33 30 31 32 33 35 36
331 321 320 320 300 298 304 292 284 265 202 96 74 65 60 74 59 62 78 75 62 89 95 73 70 71 63 84 82 98 96 104 93 86 87 90 78 78 73 72 75 65 79 70 82 88 83 85 85 81 77 81 79 80 81 75 72 70 76 72 65 62 61 61 58 55 51 49 43 33 37 37 38 39 40 40 41 41 39 37 35 34 33 28 31
302 310 310 298 301 291 277 266 245 211 139 115 83 78 59 78 74 56 84 65 78 67 83 76 66 64 67 61 70 83 91 99 107 101 99 97 99 85 77 70 67 64 76 80 64 79 85 80 77 79 80 81 80 78 84 81 76 74 73 75 65 63 62 63 59 56 54 50 43 36 32 36 35 35 36 38 38 39 38 37 36 35 34 33 28
318 305 312 315 305 296 231 223 149 107 109 111 100 89 86 78 70 64 63 73 70 77 70 72 65 66 80 75 80 86 96 91 90 93 96 86 71 75 68 64 65 53 62 81 71 80 81 77 68 77 85 87 82 78 83 82 79 73 71 71 67 63 62 60 61 57 54 48 46 41 32 32 34 33 33 35 37 37 36 36 35 33 33 32 32
301 305 300 311 322 342 41 71 78 73 95 96 102 97 80 78 80 72 70 64 78 78 72 73 73 67 67 77 75 79 92 90 88 90 94 91 81 79 76 69 62 58 66 81 79 71 84 90 90 87 85 85 85 77 75 84 78 76 74 71 65 64 59 60 61 58 55 50 45 41 37 32 31 33 32 32 35 35 36 35 33 33 32 30 31
288 272 299 329 350 16 34 46 65 75 81 91 89 94 91 73 85 79 73 72 68 67 72 73 74 67 71 71 71 71 72 93 90 89 88 85 85 86 84 80 82 85 85 85 87 84 78 79 68 70 74 85 84 81 80 75 78 73 72 67 68 62 62 63 61 58 56 52 47 42 40 35 32 30 29 30 30 34 34 34 33 32 31 30 29
282 299 338 26 9 39 56 53 58 76 76 72 88 84 95 81 75 89 84 80 70 74 65 63 70 62 64 61 66 66 75 77 92 89 85 89 87 82 85 80 80 78 76 81 87 87 92 85 86 82 73 82 86 86 86 81 76 74 70 67 67 65 65 64 61 60 58 54 48 46 40 36 33 31 25 25 26 30 32 33 33 32 31 30 29
237 45 44 42 49 51 53 71 64 81 76 71 82 86 91 89 70 72 86 78 69 77 73 63 70 63 65 53 57 59 67 73 77 94 86 87 88 83 74 75 81 81 76 60 83 80 75 84 92 93 85 81 82 78 84 86 82 72 66 66 67 68 63 66 61 57 55 53 51 45 40 36 30 30 26 22 18 21 28 29 30 28 29 28 29
144 117 96 73 58 57 53 86 75 73 78 74 76 81 86 84 73 74 74 73 74 75 74 69 73 80 81 71 59 60 67 69 69 80 92 82 85 84 76 76 78 85 83 77 74 75 74 80 57 87 102 88 89 79 79 84 77 74 63 63 66 65 68 62 60 58 52 55 50 45 40 36 33 33 28 26 22 17 23 26 27 27 26 26 27
133 134 122 99 79 65 70 83 84 67 91 85 88 83 69 85 84 73 65 75 71 70 70 69 69 70 78 82 72 68 66 70 72 70 90 92 87 87 77 70 66 79 86 83 78 70 75 88 67 50 83 103 93 93 80 79 79 74 70 68 61 67 64 61 58 56 52 52 47 43 39 34 33 30 29 25 21 18 18 23 24 23 21 24 26
125 115 105 103 103 90 80 88 89 72 86 95 90 86 71 79 80 79 75 67 66 56 58 69 70 66 73 79 79 73 69 73 78 81 86 83 85 85 80 74 86 84 84 81 71 70 66 82 85 54 58 89 90 91 89 83 84 83 71 65 60 65 64 63 63 58 56 54 47 43 35 34 33 28 25 24 21 18 20 18 21 21 19 22 24
131 122 113 109 103 99 93 95 93 88 94 93 92 87 80 82 79 84 79 71 69 57 54 60 66 71 70 71 72 74 72 72 81 86 92 91 79 79 82 72 84 89 88 83 81 79 81 78 93 89 69 65 86 81 99 103 91 81 75 60 65 67 69 73 70 64 57 55 50 41 40 34 33 30 26 24 19 19 20 20 20 18 14 20 24
132 133 125 118 114 108 104 103 105 111 94 98 99 95 95 97 95 87 75 69 69 76 56 43 37 52 63 63 66 74 71 75 82 88 90 92 89 83 85 74 76 89 87 84 81 81 97 94 82 96 92 75 57 63 70 100 90 81 82 68 58 70 73 75 68 62 61 50 44 40 39 28 35 28 27 21 21 17 19 18 20 17 16 15 21
139 143 136 129 127 130 129 122 122 125 127 123 103 118 125 107 70 82 99 92 82 75 62 49 50 47 46 57 62 61 68 81 83 93 94 94 88 94 92 77 81 86 88 90 96 94 84 95 97 71 94 94 50 10 7 34 110 80 66 66 61 37 70 73 65 56 52 48 44 48 36 36 29 28 19 19 19 15 17 18 16 18 17 17 14
161 153 149 146 135 128 122 124 129 125 112 107 110 79 62 93 123 114 108 101 104 97 86 44 73 56 49 49 43 49 66 80 79 91 91 99 105 95 88 94 93 91 91 97 94 88 90 92 109 79 33 88 63 3 337 56 41 138 133 63 15 359 61 61 65 49 52 48 50 51 38 40 32 23 13 27 21 15 15 17 16 18 17 19 16
159 161 149 142 138 134 135 134 124 108 88 83 94 99 96 96 100 103 94 97 56 72 89 71 66 70 57 48 34 59 71 77 76 85 96 94 100 99 96 98 90 106 103 86 83 76 73 83 88 117 105 69 93 32 17 17 151 142 135 92 20 67 333 4 4 35 27 46 51 59 44 38 33 27 14 27 24 15 11 15 18 18 17 19 18
153 152 156 149 146 146 151 143 125 115 104 95 103 99 100 98 90 94 89 86 111 91 84 71 63 64 54 52 46 61 68 81 74 84 91 86 95 99 102 92 87 79 101 102 87 81 76 76 90 92 119 90 50 38 21 22 83 133 47 53 172 112 37 338 350 290 327 264 56 53 39 27 26 23 19 28 17 10 6 9 16 16 19 19 20
162 162 161 159 150 148 144 137 136 134 121 120 114 123 119 99 101 98 101 98 85 84 79 55 49 77 80 57 46 48 66 78 73 76 90 95 88 94 97 95 93 84 92 94 90 92 85 79 82 90 68 124 101 111 31 28 50 16 145 112 46 35 163 257 4 293 349 13 2 29 41 25 12 25 25 23 16 11 1 5 9 13 19 19 19
165 165 163 158 150 141 122 112 118 127 134 133 138 145 143 135 140 131 120 113 115 118 117 129 122 98 97 92 60 49 64 79 72 80 85 94 92 90 93 92 86 81 78 88 96 89 72 75 51 90 82 57 124 116 93 40 59 48 50 80 112 147 157 256 94 258 333 351 312 333 74 42 359 28 16 25 17 7 8 4 8 12 18 22 20
164 149 147 148 148 143 139 131 127 128 135 142 152 154 146 145 141 138 140 143 129 80 68 65 107 102 95 85 80 55 50 87 78 80 89 90 94 90 91 88 85 82 80 85 78 75 71 63 51 70 70 88 100 94 98 116 64 43 44 62 65 54 78 115 86 81 354 318 338 308 314 31 343 53 34 30 16 13 359 10 6 19 24 30 25
151 147 147 143 147 148 145 142 134 140 147 153 157 164 150 144 125 111 100 121 131 136 131 115 95 112 100 91 88 73 61 68 91 81 84 92 96 89 88 90 89 84 89 85 93 93 90 70 71 78 75 64 81 111 105 30 102 49 31 54 54 48 43 54 74 142 143 285 317 303 255 329 307 118 61 41 13 10 1 2 14 25 35 30 29
157 155 154 149 141 137 136 138 142 147 157 164 161 164 151 139 132 124 104 73 98 112 117 114 118 120 106 95 93 90 79 66 69 87 81 87 87 96 96 96 96 93 94 94 89 88 89 93 84 75 78 67 68 89 96 92 95 129 104 62 64 70 59 51 39 59 129 87 301 9 329 339 117 151 71 96 20 6 6 3 16 35 37 31 24
161 151 145 141 143 142 142 144 148 155 161 166 164 152 143 140 136 135 125 121 115 112 125 128 129 135 115 115 110 103 98 88 75 77 85 78 88 91 95 97 98 100 96 100 100 91 88 87 87 94 93 89 73 82 96 98 90 86 104 148 120 101 68 41 32 51 27 74 104 310 327 340 336 310 10 3 358 8 10 21 39 44 38 36 24
158 153 150 152 152 151 150 151 155 155 164 163 155 157 150 156 148 148 139 137 143 142 140 137 138 136 130 130 125 116 103 99 94 77 78 87 90 92 100 99 98 101 102 100 101 104 101 98 98 91 85 94 94 94 90 91 100 89 77 87 106 130 153 132 135 96 114 85 23 298 276 238 244 293 306 354 335 340 4 33 61 51 46 33 24